TimeCST,TemperatureF,Dew PointF,Humidity,Sea Level PressureIn,VisibilityMPH,Wind Direction,Wind SpeedMPH,Gust SpeedMPH,PrecipitationIn,Events,Conditions,WindDirDegrees,DateUTC
12:53 AM,52.0,46.0,80,29.95,10.0,East,8.1,-,N/A,,Overcast,90,2012-12-28 06:53:00
1:53 AM,53.1,48.0,83,29.94,10.0,ESE,10.4,-,N/A,,Overcast,110,2012-12-28 07:53:00
2:53 AM,55.0,50.0,83,29.92,10.0,ESE,11.5,-,N/A,,Overcast,110,2012-12-28 08:53:00
3:53 AM,55.9,50.0,80,29.89,10.0,ESE,11.5,-,N/A,,Overcast,120,2012-12-28 09:53:00
4:53 AM,57.0,51.1,81,29.87,10.0,SE,10.4,-,N/A,,Partly Cloudy,130,2012-12-28 10:53:00
6:53 AM,61.0,55.0,81,29.86,10.0,SE,10.4,-,N/A,,Overcast,140,2012-12-28 12:53:00
7:35 AM,64.4,57.2,77,29.84,10.0,SSE,18.4,25.3,0.00,Rain,Light Rain,150,2012-12-28 13:35:00
7:53 AM,66.0,59.0,78,29.84,10.0,SE,17.3,25.3,0.00,,Overcast,140,2012-12-28 13:53:00
8:53 AM,68.0,61.0,78,29.83,10.0,SSE,23.0,32.2,0.00,Rain,Light Rain,150,2012-12-28 14:53:00
9:15 AM,68.0,60.8,78,29.83,10.0,SSE,20.7,28.8,0.00,Rain,Light Rain,150,2012-12-28 15:15:00
9:53 AM,70.0,62.1,76,29.83,10.0,SSE,24.2,29.9,0.00,Rain,Light Rain,160,2012-12-28 15:53:00
10:31 AM,71.6,62.6,73,29.80,10.0,SSE,24.2,34.5,0.00,Rain,Light Rain,160,2012-12-28 16:31:00
10:53 AM,71.1,64.0,78,29.80,10.0,South,25.3,33.4,0.00,Rain,Light Rain,170,2012-12-28 16:53:00
11:34 AM,71.6,64.4,78,29.78,10.0,South,21.9,29.9,0.00,,Overcast,170,2012-12-28 17:34:00
11:53 AM,71.1,64.0,78,29.77,10.0,South,21.9,28.8,0.00,,Overcast,170,2012-12-28 17:53:00
12:05 PM,69.8,64.4,83,29.76,10.0,South,19.6,29.9,0.00,Rain,Light Rain,170,2012-12-28 18:05:00
12:45 PM,68.0,64.4,88,29.75,2.0,South,23.0,29.9,0.11,Rain,Rain,170,2012-12-28 18:45:00
12:53 PM,68.0,64.0,87,29.78,2.5,WNW,13.8,28.8,0.15,Rain,Heavy Rain,290,2012-12-28 18:53:00
12:58 PM,66.2,62.6,88,29.79,1.8,NW,10.4,23.0,0.10,Rain,Heavy Rain,310,2012-12-28 18:58:00
1:02 PM,66.2,62.6,88,29.77,0.8,NNW,10.4,-,0.27,Rain,Heavy Rain,330,2012-12-28 19:02:00
1:15 PM,66.2,62.6,88,29.77,0.8,Variable,5.8,-,0.46,Rain,Heavy Rain,0,2012-12-28 19:15:00
1:23 PM,66.2,62.6,88,29.76,2.0,Variable,4.6,-,0.50,Rain,Heavy Rain,0,2012-12-28 19:23:00
1:36 PM,66.2,64.4,94,29.74,2.5,South,10.4,-,0.57,Rain,Heavy Rain,180,2012-12-28 19:36:00
1:53 PM,66.9,64.0,90,29.75,0.8,WSW,11.5,-,0.75,Rain,Heavy Rain,240,2012-12-28 19:53:00
2:19 PM,66.2,64.4,94,29.76,1.0,West,10.4,-,0.37,Rain,Heavy Rain,280,2012-12-28 20:19:00
2:28 PM,66.2,64.4,94,29.75,1.8,West,10.4,-,0.41,Rain,Heavy Rain,280,2012-12-28 20:28:00
2:34 PM,66.2,64.4,94,29.77,3.0,West,10.4,-,0.41,Rain,Light Rain,270,2012-12-28 20:34:00
2:38 PM,66.2,64.4,94,29.77,2.5,West,15.0,-,0.44,Rain,Rain,280,2012-12-28 20:38:00
2:46 PM,66.2,64.4,94,29.77,1.5,West,13.8,-,0.46,Rain,Rain,280,2012-12-28 20:46:00
2:53 PM,66.9,64.0,90,29.76,3.0,WNW,13.8,-,0.47,Rain,Rain,300,2012-12-28 20:53:00
3:16 PM,66.2,64.4,94,29.76,10.0,NW,11.5,-,0.00,,Overcast,310,2012-12-28 21:16:00
3:53 PM,66.0,63.0,90,29.77,7.0,WSW,9.2,-,0.01,Rain,Light Rain,250,2012-12-28 21:53:00
4:07 PM,64.4,62.6,94,29.76,3.0,West,10.4,-,0.04,Rain,Light Rain,280,2012-12-28 22:07:00
4:53 PM,64.0,61.0,90,29.79,10.0,West,8.1,-,0.04,Rain,Light Rain,270,2012-12-28 22:53:00
5:21 PM,64.4,60.8,88,29.80,10.0,WNW,13.8,19.6,0.00,,Mostly Cloudy,300,2012-12-28 23:21:00
5:53 PM,61.0,55.9,83,29.84,10.0,WNW,18.4,26.5,0.00,Rain,Light Rain,300,2012-12-28 23:53:00
6:53 PM,57.0,51.1,81,29.89,10.0,NW,17.3,-,0.00,,Overcast,310,2012-12-29 00:53:00
7:01 PM,55.4,51.8,88,29.89,10.0,WNW,17.3,-,N/A,,Overcast,300,2012-12-29 01:01:00
7:53 PM,54.0,48.0,80,29.94,10.0,NW,17.3,27.6,0.00,Rain,Light Rain,320,2012-12-29 01:53:00
8:53 PM,52.0,46.0,80,29.97,10.0,NW,16.1,-,0.00,,Overcast,320,2012-12-29 02:53:00
9:53 PM,51.1,44.1,77,30.01,10.0,NW,17.3,24.2,N/A,,Overcast,320,2012-12-29 03:53:00
10:31 PM,48.2,42.8,82,30.03,10.0,NW,21.9,27.6,N/A,,Overcast,320,2012-12-29 04:31:00
10:53 PM,48.9,42.1,77,30.03,10.0,NNW,16.1,24.2,0.00,,Overcast,330,2012-12-29 04:53:00
11:53 PM,48.0,41.0,77,30.05,10.0,NNW,15.0,-,N/A,,Overcast,330,2012-12-29 05:53:00